CPA198 YSSY-VHHH

Flight info

Callsign CPA198
Flight time N/A
Altitude 40000
Route RIC H530 SURVO R340 AMN A461 TANAL/N0481F430 A461 ZAM A583 SABNO V542 BETTY
Aircraft A359/H-SDE2E3GHIJ3J4J5LM1ORWXY/LB1D1

Departure

Time 2026-05-05 20:19
Airport Sydney Kingsford Smith International Airport (YSSY)

Arrival

Time N/A
Airport Hong Kong International Airport (VHHH)
Time Latitude Longitude Altitude Speed Heading
2026-05-05 19:58 -33.93832 151.16835 27 ft 0 kts 70°
2026-05-05 20:08 -33.93836 151.16820 26 ft 3 kts 70°
2026-05-05 20:08 -33.93842 151.16800 27 ft 3 kts 70°
2026-05-05 20:08 -33.93848 151.16779 26 ft 3 kts 95°
2026-05-05 20:09 -33.93843 151.16757 26 ft 3 kts 134°
2026-05-05 20:09 -33.93833 151.16746 24 ft 0 kts 159°
2026-05-05 20:11 -33.93836 151.16747 24 ft 5 kts 165°
2026-05-05 20:11 -33.93921 151.16771 27 ft 18 kts 165°
2026-05-05 20:12 -33.94040 151.16832 27 ft 17 kts 118°
2026-05-05 20:12 -33.94030 151.16974 27 ft 18 kts 74°
2026-05-05 20:12 -33.93995 151.17121 30 ft 19 kts 73°
2026-05-05 20:12 -33.94033 151.17236 27 ft 14 kts 149°
2026-05-05 20:13 -33.94121 151.17263 28 ft 13 kts 168°
2026-05-05 20:13 -33.94209 151.17286 28 ft 13 kts 168°
2026-05-05 20:13 -33.94295 151.17308 30 ft 12 kts 168°
2026-05-05 20:13 -33.94373 151.17329 32 ft 14 kts 167°
2026-05-05 20:14 -33.94524 151.17368 32 ft 27 kts 168°
2026-05-05 20:14 -33.94726 151.17419 31 ft 31 kts 168°
2026-05-05 20:14 -33.94940 151.17475 28 ft 32 kts 168°
2026-05-05 20:14 -33.95152 151.17530 27 ft 31 kts 167°
2026-05-05 20:15 -33.95361 151.17584 28 ft 30 kts 167°
2026-05-05 20:15 -33.95554 151.17634 27 ft 27 kts 167°
2026-05-05 20:15 -33.95732 151.17681 31 ft 25 kts 167°
2026-05-05 20:15 -33.95906 151.17727 28 ft 26 kts 168°
2026-05-05 20:16 -33.96078 151.17771 31 ft 25 kts 168°
2026-05-05 20:16 -33.96246 151.17814 28 ft 25 kts 168°
2026-05-05 20:16 -33.96410 151.17869 30 ft 23 kts 144°
2026-05-05 20:16 -33.96433 151.17915 30 ft 0 kts 105°
2026-05-05 20:17 -33.96424 151.18011 30 ft 20 kts 68°
2026-05-05 20:17 -33.96344 151.18043 30 ft 14 kts 348°
2026-05-05 20:18 -33.96333 151.18040 30 ft 0 kts 348°
2026-05-05 20:18 -33.96249 151.18019 28 ft 44 kts 347°
2026-05-05 20:18 -33.95808 151.17903 28 ft 97 kts 347°
2026-05-05 20:18 -33.94927 151.17674 28 ft 160 kts 348°
2026-05-05 20:19 -33.93687 151.17358 285 ft 195 kts 346°
2026-05-05 20:19 -33.92337 151.16984 1005 ft 203 kts 344°
2026-05-05 20:19 -33.90934 151.16604 1798 ft 214 kts 349°
2026-05-05 20:19 -33.89376 151.16456 2088 ft 234 kts
2026-05-05 20:20 -33.87710 151.16725 2317 ft 249 kts 16°
2026-05-05 20:20 -33.86048 151.17377 2771 ft 253 kts 24°
2026-05-05 20:20 -33.84422 151.18199 3318 ft 255 kts 25°
2026-05-05 20:20 -33.82763 151.18938 3840 ft 259 kts 18°
2026-05-05 20:21 -33.80970 151.19352 4358 ft 263 kts
2026-05-05 20:21 -33.79331 151.19326 4841 ft 266 kts 355°
2026-05-05 20:21 -33.77610 151.18762 5334 ft 271 kts 335°
2026-05-05 20:21 -33.76150 151.17332 5899 ft 274 kts 311°
2026-05-05 20:22 -33.75053 151.15450 6492 ft 275 kts 302°
2026-05-05 20:22 -33.74162 151.13426 7075 ft 276 kts 297°
2026-05-05 20:22 -33.73358 151.11324 7668 ft 277 kts 295°
2026-05-05 20:22 -33.72577 151.09203 8291 ft 277 kts 295°
2026-05-05 20:23 -33.71788 151.07097 8922 ft 276 kts 295°
2026-05-05 20:23 -33.70976 151.05001 9504 ft 279 kts 295°
2026-05-05 20:23 -33.70132 151.02886 10052 ft 282 kts 295°
2026-05-05 20:23 -33.69258 151.00738 10398 ft 292 kts 296°
2026-05-05 20:24 -33.68337 150.98502 10630 ft 306 kts 296°
2026-05-05 20:24 -33.67370 150.96166 10889 ft 319 kts 296°
2026-05-05 20:24 -33.66361 150.93733 11147 ft 331 kts 296°
2026-05-05 20:24 -33.65314 150.91207 11381 ft 344 kts 296°
2026-05-05 20:25 -33.64232 150.88594 11630 ft 355 kts 296°
2026-05-05 20:25 -33.63127 150.85928 11858 ft 366 kts 296°
2026-05-05 20:25 -33.61979 150.83156 12076 ft 377 kts 296°
2026-05-05 20:25 -33.60798 150.80307 12423 ft 383 kts 296°
2026-05-05 20:26 -33.59387 150.77592 12844 ft 386 kts 308°
2026-05-05 20:26 -33.57625 150.75141 13317 ft 389 kts 312°
2026-05-05 20:26 -33.55728 150.72808 13737 ft 393 kts 315°
2026-05-05 20:26 -33.53751 150.70529 14150 ft 396 kts 316°
2026-05-05 20:27 -33.51735 150.68258 14534 ft 399 kts 316°
2026-05-05 20:27 -33.49706 150.65977 14937 ft 401 kts 316°
2026-05-05 20:27 -33.47673 150.63675 15361 ft 403 kts 315°
2026-05-05 20:27 -33.45637 150.61350 15785 ft 405 kts 315°
2026-05-05 20:28 -33.43596 150.59005 16218 ft 407 kts 315°
2026-05-05 20:28 -33.41579 150.56680 16645 ft 409 kts 315°
2026-05-05 20:28 -33.39524 150.54309 17089 ft 411 kts 315°
2026-05-05 20:28 -33.37450 150.51926 17531 ft 414 kts 315°
2026-05-05 20:29 -33.35367 150.49524 17974 ft 416 kts 314°
2026-05-05 20:29 -33.33281 150.47116 18407 ft 418 kts 314°
2026-05-05 20:29 -33.31179 150.44691 18791 ft 421 kts 314°
2026-05-05 20:29 -33.29061 150.42252 19137 ft 424 kts 314°
2026-05-05 20:30 -33.26933 150.39805 19519 ft 426 kts 314°
2026-05-05 20:30 -33.24794 150.37348 19910 ft 428 kts 315°
2026-05-05 20:30 -33.22643 150.34879 20299 ft 430 kts 315°
2026-05-05 20:30 -33.20481 150.32399 20675 ft 432 kts 315°
2026-05-05 20:31 -33.18307 150.29909 21077 ft 434 kts 315°
2026-05-05 20:31 -33.16121 150.27406 21454 ft 437 kts 315°
2026-05-05 20:31 -33.13952 150.24925 21864 ft 439 kts 315°
2026-05-05 20:31 -33.11743 150.22400 22273 ft 441 kts 315°
2026-05-05 20:32 -33.09522 150.19861 22675 ft 443 kts 315°
2026-05-05 20:32 -33.07288 150.17311 23094 ft 445 kts 315°
2026-05-05 20:32 -33.05042 150.14749 23475 ft 448 kts 315°
2026-05-05 20:32 -33.02780 150.12170 23853 ft 451 kts 315°
2026-05-05 20:33 -33.00502 150.09575 24189 ft 453 kts 315°
2026-05-05 20:33 -32.98220 150.06978 24558 ft 454 kts 315°
2026-05-05 20:33 -32.95957 150.04404 24913 ft 455 kts 315°
2026-05-05 20:33 -32.93662 150.01796 25280 ft 457 kts 315°
2026-05-05 20:34 -32.91356 149.99184 25613 ft 458 kts 315°
2026-05-05 20:34 -32.89050 149.96568 25968 ft 459 kts 315°
2026-05-05 20:34 -32.86730 149.93936 26300 ft 461 kts 315°
2026-05-05 20:34 -32.84410 149.91305 26758 ft 459 kts 315°
2026-05-05 20:35 -32.82098 149.88686 27122 ft 460 kts 315°
2026-05-05 20:35 -32.79781 149.86062 27432 ft 461 kts 315°
2026-05-05 20:35 -32.77450 149.83427 27743 ft 463 kts 315°
2026-05-05 20:35 -32.75115 149.80789 28038 ft 464 kts 315°
2026-05-05 20:36 -32.72765 149.78142 28341 ft 466 kts 315°
2026-05-05 20:36 -32.70411 149.75488 28631 ft 467 kts 315°
2026-05-05 20:36 -32.68050 149.72824 28907 ft 468 kts 315°
2026-05-05 20:36 -32.65691 149.70166 29245 ft 468 kts 315°
2026-05-05 20:37 -32.63334 149.67513 29693 ft 466 kts 315°
2026-05-05 20:37 -32.61782 149.65769 29989 ft 464 kts 315°
2026-05-05 20:37 -32.58684 149.62287 30523 ft 461 kts 315°
2026-05-05 20:37 -32.56407 149.59619 30817 ft 459 kts 310°
2026-05-05 20:38 -32.54308 149.56757 31070 ft 458 kts 309°
2026-05-05 20:38 -32.52282 149.53888 31378 ft 456 kts 308°
2026-05-05 20:38 -32.50280 149.51002 31821 ft 451 kts 308°
2026-05-05 20:38 -32.48297 149.48122 32087 ft 450 kts 307°
2026-05-05 20:39 -32.46323 149.45248 32310 ft 450 kts 307°
2026-05-05 20:39 -32.44351 149.42380 32528 ft 449 kts 307°
2026-05-05 20:39 -32.42373 149.39511 32768 ft 448 kts 307°
2026-05-05 20:39 -32.40399 149.36656 33016 ft 448 kts 307°
2026-05-05 20:40 -32.38425 149.33805 33230 ft 447 kts 307°
2026-05-05 20:40 -32.36451 149.30959 33445 ft 446 kts 307°
2026-05-05 20:40 -32.34481 149.28121 33656 ft 445 kts 307°
2026-05-05 20:40 -32.32517 149.25294 33871 ft 445 kts 307°
2026-05-05 20:41 -32.30555 149.22473 34078 ft 444 kts 307°
2026-05-05 20:41 -32.28594 149.19656 34270 ft 443 kts 307°
2026-05-05 20:41 -32.26658 149.16875 34428 ft 442 kts 307°
2026-05-05 20:41 -32.24701 149.14066 34559 ft 442 kts 308°
2026-05-05 20:42 -32.22744 149.11260 34688 ft 442 kts 308°
2026-05-05 20:42 -32.20784 149.08451 34820 ft 442 kts 308°
2026-05-05 20:42 -32.18832 149.05654 34948 ft 441 kts 308°
2026-05-05 20:42 -32.16876 149.02853 35074 ft 441 kts 308°
2026-05-05 20:43 -32.14952 149.00103 35184 ft 441 kts 308°
2026-05-05 20:43 -32.12998 148.97312 35326 ft 440 kts 307°
2026-05-05 20:43 -32.11054 148.94538 35504 ft 438 kts 307°
2026-05-05 20:43 -32.09112 148.91770 35613 ft 438 kts 307°
2026-05-05 20:44 -32.07136 148.89037 35671 ft 439 kts 312°
2026-05-05 20:44 -32.02304 148.84557 35815 ft 444 kts 322°
2026-05-05 20:45 -31.94558 148.78567 36102 ft 444 kts 323°
2026-05-05 20:45 -31.89361 148.74622 36262 ft 444 kts 323°
2026-05-05 20:46 -31.84189 148.70668 36411 ft 443 kts 323°
2026-05-05 20:46 -31.79059 148.66732 36559 ft 443 kts 323°
2026-05-05 20:47 -31.73899 148.62774 36694 ft 443 kts 323°
2026-05-05 20:47 -31.68737 148.58822 36822 ft 442 kts 323°
2026-05-05 20:48 -31.63584 148.54883 36928 ft 442 kts 323°
2026-05-05 20:48 -31.58429 148.50948 37041 ft 442 kts 323°
2026-05-05 20:49 -31.53300 148.47038 37112 ft 442 kts 323°
2026-05-05 20:49 -31.50731 148.45082 37241 ft 439 kts 323°
2026-05-05 20:49 -31.48165 148.43130 37345 ft 438 kts 323°
2026-05-05 20:50 -31.43914 148.39897 37393 ft 439 kts 323°
2026-05-05 20:50 -31.37921 148.35345 37454 ft 439 kts 323°
2026-05-05 20:51 -31.32794 148.31457 37528 ft 439 kts 323°
2026-05-05 20:51 -31.27666 148.27584 37590 ft 439 kts 323°
2026-05-05 20:52 -31.23414 148.24365 37612 ft 438 kts 323°
2026-05-05 20:52 -31.20858 148.22431 37731 ft 436 kts 323°
2026-05-05 20:52 -31.18316 148.20510 37822 ft 435 kts 323°
2026-05-05 20:53 -31.12393 148.16039 37794 ft 436 kts 323°
2026-05-05 20:53 -31.08144 148.12838 37833 ft 436 kts 323°
2026-05-05 20:54 -31.03041 148.09009 37882 ft 436 kts 323°
2026-05-05 20:54 -30.97941 148.05171 37925 ft 436 kts 323°
2026-05-05 20:55 -30.92840 148.01339 37920 ft 436 kts 323°
2026-05-05 20:55 -30.90303 147.99436 38059 ft 433 kts 323°
2026-05-05 20:55 -30.87768 147.97537 38129 ft 432 kts 323°
2026-05-05 20:56 -30.82714 147.93753 38118 ft 432 kts 323°
2026-05-05 20:56 -30.77649 147.89965 38093 ft 433 kts 323°
2026-05-05 20:57 -30.72573 147.86174 38101 ft 434 kts 323°
2026-05-05 20:57 -30.67498 147.82390 38127 ft 433 kts 323°
2026-05-05 20:58 -30.62422 147.78610 38146 ft 432 kts 322°
2026-05-05 20:58 -30.59925 147.76753 38284 ft 429 kts 322°
2026-05-05 20:58 -30.57414 147.74888 38345 ft 428 kts 322°
2026-05-05 20:59 -30.52391 147.71154 38304 ft 429 kts 322°
2026-05-05 20:59 -30.47343 147.67414 38289 ft 430 kts 322°
2026-05-05 21:00 -30.42306 147.63681 38312 ft 429 kts 322°
2026-05-05 21:00 -30.37274 147.59953 38313 ft 429 kts 322°
2026-05-05 21:01 -30.32243 147.56232 38287 ft 429 kts 322°
2026-05-05 21:01 -30.27063 147.52767 38370 ft 431 kts 327°
2026-05-05 21:02 -30.21709 147.49707 38348 ft 432 kts 328°
2026-05-05 21:02 -30.16278 147.46696 38348 ft 433 kts 328°
2026-05-05 21:03 -30.10846 147.43687 38343 ft 433 kts 328°
2026-05-05 21:03 -30.05423 147.40673 38344 ft 433 kts 328°
2026-05-05 21:04 -30.00005 147.37659 38390 ft 431 kts 328°
2026-05-05 21:04 -29.94606 147.34658 38380 ft 431 kts 328°
2026-05-05 21:05 -29.89191 147.31651 38386 ft 431 kts 328°
2026-05-05 21:05 -29.83779 147.28650 38382 ft 431 kts 328°
2026-05-05 21:06 -29.78362 147.25651 38386 ft 431 kts 328°
2026-05-05 21:06 -29.72995 147.22683 38420 ft 429 kts 328°
2026-05-05 21:07 -29.67618 147.19715 38465 ft 429 kts 328°
2026-05-05 21:07 -29.62235 147.16743 38435 ft 429 kts 328°
2026-05-05 21:08 -29.56841 147.13769 38420 ft 429 kts 328°
2026-05-05 21:08 -29.51454 147.10805 38418 ft 429 kts 328°
2026-05-05 21:09 -29.46057 147.07838 38414 ft 429 kts 328°
2026-05-05 21:09 -29.40691 147.04892 38481 ft 427 kts 328°
2026-05-05 21:10 -29.35350 147.01962 38465 ft 428 kts 328°
2026-05-05 21:10 -29.29977 146.99018 38456 ft 428 kts 328°
2026-05-05 21:11 -29.24604 146.96077 38448 ft 428 kts 328°
2026-05-05 21:11 -29.19228 146.93139 38448 ft 428 kts 328°
2026-05-05 21:12 -29.13855 146.90208 38459 ft 427 kts 327°
2026-05-05 21:12 -29.08514 146.87296 38463 ft 427 kts 327°
2026-05-05 21:13 -29.03143 146.84370 38458 ft 427 kts 327°
2026-05-05 21:13 -28.97775 146.81450 38432 ft 428 kts 327°
2026-05-05 21:14 -28.92396 146.78527 38447 ft 427 kts 327°
2026-05-05 21:14 -28.87027 146.75614 38457 ft 427 kts 327°
2026-05-05 21:15 -28.81661 146.72705 38455 ft 427 kts 327°
2026-05-05 21:15 -28.76280 146.69788 38453 ft 427 kts 327°
2026-05-05 21:16 -28.71401 146.66108 38379 ft 419 kts 318°
2026-05-05 21:16 -28.66757 146.62175 38392 ft 418 kts 317°
2026-05-05 21:17 -28.62111 146.58169 38396 ft 418 kts 317°
2026-05-05 21:17 -28.57461 146.54187 38418 ft 417 kts 317°
2026-05-05 21:18 -28.52822 146.50244 38476 ft 416 kts 317°
2026-05-05 21:18 -28.48177 146.46304 38457 ft 417 kts 317°
2026-05-05 21:19 -28.43558 146.42393 38461 ft 417 kts 317°
2026-05-05 21:19 -28.38904 146.38455 38464 ft 417 kts 317°
2026-05-05 21:20 -28.34253 146.34523 38461 ft 417 kts 317°
2026-05-05 21:20 -28.29596 146.30592 38462 ft 417 kts 317°
2026-05-05 21:21 -28.24972 146.26693 38530 ft 414 kts 317°
2026-05-05 21:21 -28.20355 146.22805 38622 ft 413 kts 317°
2026-05-05 21:22 -28.15740 146.18919 38582 ft 413 kts 317°
2026-05-05 21:22 -28.11118 146.15031 38557 ft 414 kts 317°
2026-05-05 21:23 -28.06489 146.11145 38566 ft 413 kts 317°
2026-05-05 21:23 -28.01863 146.07265 38568 ft 413 kts 317°
2026-05-05 21:24 -27.97240 146.03392 38565 ft 414 kts 317°
2026-05-05 21:24 -27.92645 145.99546 38603 ft 412 kts 317°
2026-05-05 21:25 -27.88054 145.95711 38692 ft 410 kts 317°
2026-05-05 21:25 -27.83467 145.91878 38660 ft 410 kts 317°
2026-05-05 21:26 -27.78872 145.88042 38630 ft 411 kts 317°
2026-05-05 21:26 -27.74275 145.84212 38621 ft 411 kts 317°
2026-05-05 21:27 -27.69668 145.80377 38620 ft 411 kts 317°
2026-05-05 21:27 -27.65098 145.76577 38610 ft 411 kts 317°
2026-05-05 21:28 -27.60498 145.72756 38648 ft 409 kts 317°
2026-05-05 21:28 -27.55936 145.68974 38761 ft 406 kts 317°
2026-05-05 21:29 -27.51381 145.65196 38717 ft 407 kts 317°
2026-05-05 21:29 -27.46805 145.61405 38681 ft 408 kts 317°
2026-05-05 21:30 -27.42236 145.57626 38682 ft 408 kts 317°
2026-05-05 21:30 -27.37662 145.53847 38684 ft 408 kts 317°
2026-05-05 21:31 -27.33116 145.50094 38690 ft 407 kts 317°
2026-05-05 21:31 -27.28552 145.46332 38700 ft 406 kts 317°
2026-05-05 21:32 -27.24001 145.42586 38803 ft 404 kts 317°
2026-05-05 21:32 -27.19459 145.38846 38757 ft 405 kts 317°
2026-05-05 21:33 -27.14911 145.35107 38722 ft 405 kts 317°
2026-05-05 21:33 -27.10363 145.31372 38703 ft 405 kts 317°
2026-05-05 21:34 -27.05807 145.27635 38701 ft 405 kts 317°
2026-05-05 21:34 -27.01289 145.23933 38701 ft 405 kts 317°
2026-05-05 21:35 -26.96738 145.20209 38733 ft 404 kts 317°
2026-05-05 21:35 -26.92211 145.16509 38800 ft 402 kts 317°
2026-05-05 21:36 -26.87684 145.12810 38768 ft 403 kts 317°
2026-05-05 21:36 -26.83148 145.09107 38738 ft 403 kts 317°
2026-05-05 21:37 -26.78604 145.05413 38721 ft 403 kts 317°
2026-05-05 21:37 -26.74095 145.01737 38708 ft 403 kts 317°
2026-05-05 21:38 -26.69556 144.98040 38713 ft 403 kts 317°
2026-05-05 21:38 -26.65023 144.94353 38661 ft 403 kts 317°
2026-05-05 21:39 -26.60500 144.90683 38770 ft 401 kts 317°
2026-05-05 21:39 -26.56745 144.87637 38754 ft 401 kts 317°
2026-05-05 21:40 -26.52235 144.83980 38716 ft 401 kts 317°
2026-05-05 21:40 -26.46978 144.79724 38713 ft 401 kts 317°
2026-05-05 21:41 -26.43189 144.76660 38719 ft 401 kts 317°
2026-05-05 21:41 -26.38667 144.73006 38718 ft 401 kts 317°
2026-05-05 21:42 -26.34167 144.69374 38717 ft 401 kts 317°
2026-05-05 21:42 -26.29645 144.65728 38735 ft 400 kts 317°
2026-05-05 21:43 -26.25136 144.62095 38736 ft 400 kts 317°
2026-05-05 21:43 -26.20621 144.58461 38705 ft 401 kts 317°
2026-05-05 21:44 -26.16101 144.54826 38696 ft 401 kts 317°
2026-05-05 21:44 -26.11584 144.51197 38686 ft 401 kts 317°
2026-05-05 21:45 -26.07059 144.47567 38689 ft 401 kts 318°
2026-05-05 21:45 -26.02535 144.43940 38711 ft 400 kts 318°
2026-05-05 21:46 -25.98041 144.40340 38674 ft 400 kts 318°
2026-05-05 21:46 -25.93521 144.36725 38698 ft 400 kts 318°
2026-05-05 21:47 -25.89001 144.33112 38706 ft 400 kts 318°
2026-05-05 21:47 -25.84480 144.29505 38712 ft 400 kts 318°
2026-05-05 21:48 -25.79965 144.25900 38709 ft 400 kts 318°
2026-05-05 21:48 -25.75438 144.22290 38698 ft 400 kts 318°
2026-05-05 21:49 -25.70939 144.18707 38700 ft 401 kts 318°
2026-05-05 21:49 -25.66411 144.15105 38700 ft 400 kts 318°
2026-05-05 21:50 -25.61880 144.11505 38693 ft 401 kts 318°
2026-05-05 21:50 -25.57341 144.07901 38692 ft 401 kts 318°
2026-05-05 21:51 -25.52810 144.04306 38695 ft 401 kts 318°
2026-05-05 21:51 -25.48306 144.00737 38693 ft 401 kts 318°
2026-05-05 21:52 -25.41506 143.95355 38719 ft 400 kts 318°
2026-05-05 21:53 -25.36971 143.91770 38710 ft 400 kts 318°
2026-05-05 21:53 -25.32428 143.88181 38668 ft 401 kts 318°
2026-05-05 21:54 -25.27888 143.84598 38689 ft 400 kts 318°
2026-05-05 21:54 -25.23355 143.81025 38691 ft 400 kts 318°
2026-05-05 21:55 -25.18820 143.77453 38704 ft 400 kts 318°
2026-05-05 21:55 -25.14281 143.73881 38710 ft 401 kts 318°
2026-05-05 21:56 -25.09770 143.70335 38717 ft 400 kts 318°
2026-05-05 21:56 -25.05231 143.66770 38714 ft 400 kts 318°
2026-05-05 21:57 -25.00685 143.63202 38598 ft 402 kts 318°
2026-05-05 21:57 -24.96121 143.59623 38587 ft 402 kts 318°
2026-05-05 21:58 -24.91554 143.56047 38614 ft 402 kts 318°
2026-05-05 21:58 -24.86997 143.52482 38641 ft 402 kts 318°
2026-05-05 21:59 -24.82436 143.48916 38664 ft 402 kts 318°
2026-05-05 21:59 -24.77903 143.45375 38679 ft 402 kts 318°
2026-05-05 22:00 -24.73349 143.41821 38685 ft 402 kts 318°
2026-05-05 22:00 -24.68786 143.38263 38626 ft 402 kts 318°
2026-05-05 22:01 -24.64212 143.34699 38607 ft 403 kts 318°
2026-05-05 22:01 -24.59631 143.31135 38614 ft 403 kts 318°
2026-05-05 22:02 -24.55050 143.27574 38635 ft 403 kts 318°
2026-05-05 22:02 -24.50474 143.24019 38662 ft 403 kts 318°
2026-05-05 22:03 -24.45920 143.20485 38675 ft 403 kts 318°
2026-05-05 22:03 -24.41343 143.16936 38676 ft 403 kts 318°
2026-05-05 22:04 -24.36763 143.13387 38600 ft 404 kts 318°
2026-05-05 22:04 -24.32150 143.09815 38566 ft 405 kts 318°
2026-05-05 22:05 -24.27540 143.06252 38596 ft 405 kts 318°
2026-05-05 22:05 -24.22937 143.02696 38617 ft 405 kts 318°
2026-05-05 22:06 -24.18329 142.99140 38622 ft 405 kts 318°
2026-05-05 22:06 -24.13724 142.95588 38639 ft 405 kts 318°
2026-05-05 22:07 -24.09112 142.92034 38647 ft 405 kts 318°
2026-05-05 22:07 -24.04504 142.88486 38570 ft 406 kts 318°
2026-05-05 22:08 -23.99872 142.84922 38535 ft 407 kts 318°
2026-05-05 22:08 -23.95262 142.81381 38572 ft 407 kts 319°
2026-05-05 22:09 -23.90625 142.77822 38585 ft 407 kts 319°
2026-05-05 22:09 -23.85983 142.74261 38586 ft 407 kts 318°
2026-05-05 22:10 -23.81346 142.70706 38597 ft 407 kts 318°
2026-05-05 22:10 -23.76708 142.67156 38648 ft 407 kts 318°
2026-05-05 22:11 -23.72099 142.63630 38582 ft 408 kts 318°
2026-05-05 22:11 -23.67430 142.60059 38520 ft 410 kts 319°
2026-05-05 22:12 -23.62763 142.56496 38563 ft 409 kts 319°
2026-05-05 22:12 -23.58098 142.52938 38609 ft 409 kts 319°
2026-05-05 22:13 -23.53426 142.49377 38643 ft 409 kts 318°
2026-05-05 22:13 -23.48796 142.45850 38666 ft 409 kts 318°
2026-05-05 22:14 -23.44123 142.42294 38683 ft 409 kts 318°
2026-05-05 22:14 -23.39457 142.38745 38581 ft 410 kts 319°
2026-05-05 22:15 -23.34758 142.35174 38549 ft 412 kts 319°
2026-05-05 22:15 -23.30061 142.31610 38600 ft 411 kts 319°
2026-05-05 22:16 -23.25396 142.28074 38611 ft 411 kts 319°
2026-05-05 22:16 -23.20698 142.24514 38605 ft 412 kts 319°
2026-05-05 22:17 -23.15991 142.20952 38646 ft 412 kts 319°
2026-05-05 22:17 -23.11291 142.17397 38672 ft 412 kts 319°
2026-05-05 22:18 -23.06584 142.13839 38630 ft 413 kts 319°
2026-05-05 22:18 -23.01861 142.10272 38623 ft 413 kts 319°
2026-05-05 22:19 -22.97161 142.06728 38666 ft 413 kts 319°
2026-05-05 22:19 -22.92438 142.03168 38685 ft 413 kts 319°
2026-05-05 22:20 -22.87713 141.99609 38665 ft 414 kts 319°
2026-05-05 22:20 -22.82978 141.96047 38693 ft 413 kts 319°
2026-05-05 22:21 -22.78255 141.92497 38718 ft 413 kts 319°
2026-05-05 22:21 -22.73521 141.88941 38618 ft 415 kts 319°
2026-05-05 22:22 -22.68792 141.85392 38610 ft 416 kts 319°
2026-05-05 22:22 -22.64042 141.81833 38664 ft 415 kts 319°
2026-05-05 22:23 -22.59285 141.78268 38622 ft 416 kts 319°
2026-05-05 22:23 -22.54518 141.74699 38636 ft 416 kts 319°
2026-05-05 22:24 -22.49751 141.71135 38669 ft 416 kts 319°
2026-05-05 22:24 -22.44985 141.67574 38690 ft 416 kts 319°
2026-05-05 22:25 -22.40245 141.64036 38701 ft 416 kts 319°
2026-05-05 22:25 -22.35483 141.60484 38723 ft 416 kts 319°
2026-05-05 22:26 -22.30718 141.56933 38741 ft 416 kts 319°
2026-05-05 22:26 -22.25945 141.53379 38774 ft 416 kts 319°
2026-05-05 22:27 -22.21984 141.50432 38778 ft 416 kts 319°
2026-05-05 22:27 -22.17218 141.46888 38792 ft 416 kts 319°
2026-05-05 22:28 -22.12447 141.43344 38777 ft 416 kts 319°
2026-05-05 22:28 -22.07675 141.39801 38711 ft 418 kts 319°
2026-05-05 22:29 -22.02886 141.36249 38751 ft 417 kts 319°
2026-05-05 22:29 -21.98128 141.32725 38761 ft 418 kts 319°
2026-05-05 22:30 -21.93329 141.29171 38758 ft 418 kts 319°
2026-05-05 22:30 -21.88530 141.25622 38777 ft 418 kts 319°
2026-05-05 22:31 -21.83732 141.22076 38797 ft 418 kts 319°
2026-05-05 22:31 -21.78967 141.18556 38760 ft 419 kts 319°
2026-05-05 22:32 -21.74119 141.14977 38718 ft 420 kts 319°
2026-05-05 22:32 -21.69328 141.11446 38753 ft 420 kts 319°
2026-05-05 22:33 -21.64511 141.07897 38762 ft 420 kts 319°
2026-05-05 22:33 -21.59683 141.04344 38772 ft 420 kts 319°
2026-05-05 22:34 -21.54858 141.00795 38794 ft 420 kts 319°
2026-05-05 22:34 -21.50033 140.97250 38810 ft 420 kts 319°
2026-05-05 22:35 -21.45201 140.93701 38760 ft 421 kts 319°
2026-05-05 22:35 -21.40360 140.90148 38748 ft 422 kts 319°
2026-05-05 22:36 -21.35517 140.86602 38760 ft 422 kts 319°
2026-05-05 22:36 -21.30661 140.83046 38743 ft 422 kts 319°
2026-05-05 22:37 -21.25811 140.79495 38771 ft 422 kts 319°
2026-05-05 22:37 -21.20986 140.75965 38786 ft 422 kts 319°
2026-05-05 22:38 -21.16132 140.72417 38815 ft 422 kts 319°
2026-05-05 22:38 -21.11269 140.68866 38742 ft 424 kts 320°
2026-05-05 22:39 -21.06398 140.65314 38745 ft 424 kts 320°
2026-05-05 22:39 -21.01519 140.61758 38742 ft 424 kts 320°
2026-05-05 22:40 -20.96638 140.58204 38788 ft 424 kts 320°
2026-05-05 22:40 -20.91761 140.54655 38814 ft 424 kts 320°
2026-05-05 22:41 -20.86914 140.51131 38841 ft 424 kts 320°
2026-05-05 22:41 -20.82033 140.47584 38810 ft 424 kts 320°
2026-05-05 22:42 -20.77142 140.44032 38778 ft 425 kts 320°
2026-05-05 22:42 -20.72246 140.40482 38800 ft 425 kts 320°
2026-05-05 22:43 -20.67346 140.36930 38786 ft 426 kts 320°
2026-05-05 22:43 -20.62440 140.33377 38813 ft 426 kts 320°
2026-05-05 22:44 -20.57536 140.29829 38830 ft 425 kts 320°
2026-05-05 22:44 -20.52636 140.26285 38858 ft 425 kts 320°
2026-05-05 22:45 -20.47725 140.22737 38803 ft 426 kts 320°
2026-05-05 22:45 -20.42844 140.19213 38813 ft 426 kts 320°
2026-05-05 22:46 -20.37913 140.15656 38782 ft 427 kts 320°
2026-05-05 22:46 -20.32988 140.12106 38804 ft 428 kts 320°
2026-05-05 22:47 -20.28055 140.08553 38825 ft 427 kts 320°
2026-05-05 22:47 -20.23128 140.05007 38844 ft 427 kts 320°
2026-05-05 22:48 -20.18197 140.01462 38833 ft 427 kts 320°
2026-05-05 22:48 -20.13266 139.97918 38827 ft 428 kts 320°
2026-05-05 22:49 -20.08358 139.94393 38807 ft 429 kts 320°
2026-05-05 22:49 -20.03396 139.90833 38799 ft 429 kts 320°
2026-05-05 22:50 -19.98438 139.87279 38831 ft 429 kts 320°
2026-05-05 22:50 -19.93485 139.83731 38852 ft 429 kts 320°
2026-05-05 22:51 -19.88534 139.80188 38864 ft 429 kts 320°
2026-05-05 22:51 -19.83578 139.76643 38852 ft 429 kts 320°
2026-05-05 22:52 -19.78622 139.73100 38858 ft 430 kts 320°
2026-05-05 22:52 -19.73682 139.69572 38845 ft 431 kts 320°
2026-05-05 22:53 -19.68715 139.66028 38862 ft 430 kts 320°
2026-05-05 22:53 -19.63737 139.62478 38858 ft 431 kts 320°
2026-05-05 22:54 -19.58768 139.58939 38897 ft 430 kts 321°
2026-05-05 22:54 -19.53792 139.55394 38861 ft 431 kts 321°
2026-05-05 22:55 -19.48800 139.51842 38814 ft 433 kts 321°
2026-05-05 22:55 -19.43789 139.48281 38803 ft 433 kts 321°
2026-05-05 22:56 -19.38776 139.44721 38830 ft 433 kts 321°
2026-05-05 22:56 -19.33805 139.41193 38869 ft 433 kts 321°
2026-05-05 22:57 -19.28796 139.37641 38892 ft 433 kts 321°
2026-05-05 22:57 -19.23788 139.34092 38908 ft 433 kts 321°
2026-05-05 22:58 -19.18811 139.30567 38928 ft 433 kts 321°
2026-05-05 22:58 -19.13804 139.27025 38967 ft 432 kts 321°
2026-05-05 22:59 -19.08799 139.23486 38989 ft 433 kts 321°
2026-05-05 22:59 -19.03789 139.19946 38992 ft 433 kts 321°
2026-05-05 23:00 -18.96318 139.14671 39040 ft 432 kts 321°
2026-05-05 23:00 -18.91316 139.11143 39022 ft 432 kts 321°
2026-05-05 23:01 -18.86306 139.07613 38989 ft 433 kts 321°
2026-05-05 23:01 -18.81276 139.04068 38949 ft 435 kts 321°
2026-05-05 23:02 -18.76243 139.00527 38978 ft 434 kts 321°
2026-05-05 23:02 -18.71239 138.97009 39000 ft 434 kts 321°
2026-05-05 23:03 -18.66208 138.93474 39011 ft 434 kts 321°
2026-05-05 23:03 -18.61185 138.89947 39031 ft 434 kts 321°
2026-05-05 23:04 -18.56149 138.86413 39062 ft 433 kts 321°
2026-05-05 23:04 -18.51156 138.82911 39023 ft 434 kts 322°
2026-05-05 23:05 -18.46122 138.79384 39043 ft 434 kts 322°
2026-05-05 23:05 -18.41091 138.75861 39056 ft 434 kts 322°
2026-05-05 23:06 -18.36053 138.72336 39064 ft 434 kts 322°
2026-05-05 23:06 -18.31019 138.68817 39076 ft 434 kts 322°
2026-05-05 23:07 -18.25988 138.65302 39072 ft 434 kts 322°
2026-05-05 23:07 -18.20983 138.61806 39062 ft 435 kts 322°
2026-05-05 23:08 -18.15943 138.58290 39065 ft 435 kts 322°
2026-05-05 23:08 -18.10904 138.54777 39074 ft 434 kts 322°
2026-05-05 23:09 -18.05865 138.51266 39082 ft 435 kts 322°
2026-05-05 23:09 -18.00815 138.47750 39090 ft 435 kts 322°
2026-05-05 23:10 -17.95772 138.44241 39096 ft 434 kts 322°
2026-05-05 23:10 -17.90750 138.40749 39037 ft 436 kts 322°
2026-05-05 23:11 -17.85688 138.37232 39050 ft 436 kts 322°
2026-05-05 23:11 -17.80629 138.33720 39055 ft 436 kts 322°
2026-05-05 23:12 -17.75566 138.30207 39059 ft 436 kts 322°
2026-05-05 23:12 -17.70503 138.26696 39090 ft 436 kts 322°
2026-05-05 23:13 -17.65444 138.23191 39108 ft 436 kts 322°
2026-05-05 23:13 -17.60373 138.19679 39021 ft 438 kts 322°
2026-05-05 23:14 -17.55284 138.16158 39031 ft 438 kts 322°
2026-05-05 23:14 -17.50197 138.12641 39066 ft 438 kts 322°
2026-05-05 23:15 -17.45969 138.09719 39082 ft 437 kts 322°
2026-05-05 23:15 -17.40889 138.06211 39093 ft 437 kts 322°
2026-05-05 23:16 -17.35799 138.02698 39110 ft 437 kts 322°
2026-05-05 23:16 -17.30715 137.99191 39056 ft 439 kts 322°
2026-05-05 23:17 -17.25640 137.95693 39043 ft 440 kts 322°
2026-05-05 23:17 -17.20534 137.92177 39072 ft 439 kts 322°
2026-05-05 23:18 -17.15422 137.88659 39091 ft 439 kts 322°
2026-05-05 23:18 -17.10320 137.85149 39098 ft 439 kts 322°
2026-05-05 23:19 -17.05208 137.81636 39108 ft 439 kts 322°
2026-05-05 23:19 -17.00103 137.78129 39069 ft 440 kts 322°
2026-05-05 23:20 -16.94975 137.74608 39036 ft 441 kts 322°
2026-05-05 23:20 -16.89870 137.71106 39056 ft 441 kts 322°
2026-05-05 23:21 -16.84739 137.67589 39087 ft 441 kts 322°
2026-05-05 23:21 -16.79614 137.64078 39116 ft 440 kts 322°
2026-05-05 23:22 -16.74488 137.60569 39108 ft 441 kts 322°
2026-05-05 23:22 -16.69386 137.57077 39080 ft 442 kts 322°
2026-05-05 23:23 -16.64234 137.53554 39060 ft 442 kts 322°
2026-05-05 23:23 -16.59089 137.50039 39098 ft 442 kts 322°
2026-05-05 23:24 -16.53939 137.46523 39129 ft 442 kts 322°
2026-05-05 23:24 -16.48794 137.43012 39142 ft 442 kts 322°
2026-05-05 23:25 -16.43644 137.39499 39157 ft 442 kts 322°
2026-05-05 23:25 -16.38495 137.35990 39140 ft 443 kts 322°
2026-05-05 23:26 -16.33338 137.32477 39126 ft 443 kts 323°
2026-05-05 23:26 -16.28210 137.28986 39147 ft 443 kts 323°
2026-05-05 23:27 -16.23051 137.25478 39149 ft 443 kts 323°
2026-05-05 23:27 -16.17890 137.21970 39160 ft 443 kts 323°
2026-05-05 23:28 -16.12724 137.18460 39165 ft 443 kts 323°
2026-05-05 23:28 -16.07559 137.14953 39173 ft 443 kts 323°
2026-05-05 23:29 -16.02402 137.11454 39180 ft 443 kts 323°
2026-05-05 23:29 -15.97243 137.07956 39189 ft 443 kts 323°
2026-05-05 23:30 -15.92074 137.04453 39192 ft 443 kts 323°
2026-05-05 23:30 -15.86912 137.00957 39210 ft 443 kts 323°
2026-05-05 23:31 -15.81779 136.97483 39213 ft 443 kts 323°
2026-05-05 23:31 -15.76606 136.93983 39155 ft 444 kts 323°
2026-05-05 23:32 -15.71428 136.90484 39190 ft 443 kts 323°
2026-05-05 23:32 -15.66254 136.86989 39200 ft 443 kts 323°
2026-05-05 23:33 -15.61080 136.83495 39195 ft 444 kts 323°
2026-05-05 23:33 -15.55900 136.79999 39203 ft 444 kts 323°
2026-05-05 23:34 -15.50724 136.76510 39213 ft 444 kts 323°
2026-05-05 23:34 -15.45571 136.73037 39184 ft 444 kts 323°
2026-05-05 23:35 -15.40379 136.69540 39183 ft 445 kts 323°
2026-05-05 23:35 -15.35188 136.66040 39190 ft 444 kts 322°
2026-05-05 23:36 -15.30179 136.62312 39201 ft 443 kts 320°
2026-05-05 23:36 -15.25261 136.58471 39203 ft 443 kts 320°
2026-05-05 23:37 -15.20321 136.54658 39198 ft 443 kts 320°
2026-05-05 23:37 -15.15382 136.50897 39190 ft 443 kts 320°
2026-05-05 23:38 -15.10391 136.47117 39131 ft 445 kts 321°
2026-05-05 23:38 -15.05390 136.43332 39155 ft 445 kts 321°
2026-05-05 23:39 -15.00397 136.39554 39168 ft 445 kts 321°
2026-05-05 23:39 -14.95402 136.35774 39186 ft 445 kts 320°
2026-05-05 23:40 -14.90408 136.31997 39197 ft 445 kts 320°
2026-05-05 23:40 -14.85416 136.28225 39203 ft 445 kts 320°
2026-05-05 23:41 -14.80444 136.24468 39110 ft 447 kts 321°
2026-05-05 23:41 -14.75416 136.20672 39104 ft 447 kts 321°
2026-05-05 23:42 -14.70388 136.16879 39152 ft 447 kts 321°
2026-05-05 23:42 -14.65366 136.13093 39160 ft 447 kts 321°
2026-05-05 23:43 -14.60337 136.09303 39173 ft 447 kts 321°
2026-05-05 23:43 -14.55319 136.05525 39193 ft 447 kts 321°
2026-05-05 23:44 -14.50293 136.01741 39157 ft 448 kts 321°
2026-05-05 23:44 -14.45276 135.97966 39135 ft 448 kts 321°
2026-05-05 23:45 -14.40232 135.94174 39146 ft 449 kts 321°
2026-05-05 23:45 -14.35184 135.90382 39156 ft 449 kts 321°
2026-05-05 23:46 -14.30139 135.86593 39177 ft 448 kts 321°
2026-05-05 23:46 -14.25093 135.82805 39193 ft 448 kts 321°
2026-05-05 23:47 -14.20049 135.79021 39198 ft 448 kts 321°
2026-05-05 23:47 -14.14993 135.75231 39175 ft 449 kts 321°
2026-05-05 23:48 -14.09968 135.71466 39195 ft 449 kts 321°
2026-05-05 23:48 -14.04911 135.67679 39206 ft 449 kts 321°
2026-05-05 23:49 -13.99856 135.63895 39220 ft 449 kts 321°
2026-05-05 23:49 -13.94791 135.60107 39230 ft 449 kts 321°
2026-05-05 23:50 -13.89729 135.56329 39243 ft 449 kts 322°
2026-05-05 23:50 -13.84664 135.52541 39200 ft 451 kts 322°
2026-05-05 23:51 -13.79590 135.48749 39216 ft 450 kts 322°
2026-05-05 23:51 -13.74520 135.44964 39247 ft 450 kts 322°
2026-05-05 23:52 -13.69449 135.41182 39261 ft 450 kts 322°
2026-05-05 23:52 -13.64373 135.37398 39262 ft 450 kts 322°
2026-05-05 23:53 -13.59297 135.33616 39252 ft 451 kts 322°
2026-05-05 23:53 -13.54204 135.29823 39200 ft 453 kts 322°
2026-05-05 23:54 -13.49132 135.26048 39230 ft 452 kts 322°
2026-05-05 23:54 -13.44032 135.22253 39244 ft 452 kts 322°
2026-05-05 23:55 -13.38933 135.18463 39277 ft 452 kts 322°
2026-05-05 23:55 -13.33836 135.14675 39303 ft 452 kts 322°
2026-05-05 23:56 -13.28774 135.10915 39329 ft 452 kts 322°
2026-05-05 23:56 -13.23665 135.07122 39250 ft 454 kts 322°
2026-05-05 23:57 -13.18549 135.03326 39277 ft 453 kts 322°
2026-05-05 23:57 -13.13436 134.99535 39301 ft 453 kts 322°
2026-05-05 23:58 -13.08323 134.95745 39317 ft 454 kts 322°
2026-05-05 23:58 -13.03201 134.91951 39324 ft 453 kts 322°
2026-05-05 23:59 -12.98087 134.88165 39330 ft 454 kts 322°
2026-05-05 23:59 -12.92972 134.84380 39342 ft 453 kts 322°
2026-05-06 00:00 -12.87886 134.80618 39359 ft 453 kts 322°
2026-05-06 00:00 -12.82768 134.76835 39377 ft 453 kts 322°
2026-05-06 00:01 -12.77646 134.73050 39339 ft 454 kts 322°
2026-05-06 00:01 -12.72510 134.69257 39338 ft 455 kts 322°
2026-05-06 00:02 -12.68244 134.66108 39357 ft 454 kts 322°
2026-05-06 00:02 -12.62279 134.61708 39365 ft 454 kts 322°
2026-05-06 00:03 -12.57146 134.57923 39361 ft 455 kts 322°
2026-05-06 00:03 -12.52835 134.54745 39314 ft 456 kts 322°
2026-05-06 00:04 -12.47717 134.50975 39340 ft 456 kts 322°
2026-05-06 00:04 -12.42570 134.47185 39359 ft 455 kts 322°
2026-05-06 00:05 -12.34854 134.41507 39374 ft 455 kts 322°
2026-05-06 00:06 -12.29700 134.37717 39314 ft 457 kts 322°
2026-05-06 00:06 -12.24540 134.33924 39340 ft 457 kts 322°
2026-05-06 00:07 -12.19414 134.30159 39352 ft 457 kts 322°
2026-05-06 00:07 -12.14250 134.26367 39358 ft 457 kts 322°
2026-05-06 00:08 -12.09085 134.22575 39320 ft 458 kts 322°
2026-05-06 00:08 -12.03907 134.18777 39346 ft 458 kts 322°
2026-05-06 00:09 -11.98735 134.14985 39359 ft 457 kts 322°
2026-05-06 00:09 -11.93563 134.11195 39373 ft 457 kts 322°
2026-05-06 00:10 -11.88387 134.07405 39361 ft 458 kts 322°
2026-05-06 00:10 -11.83224 134.03623 39279 ft 460 kts 322°
2026-05-06 00:11 -11.78016 133.99811 39295 ft 460 kts 322°
2026-05-06 00:11 -11.72808 133.96002 39313 ft 460 kts 322°
2026-05-06 00:12 -11.67605 133.92198 39338 ft 460 kts 322°
2026-05-06 00:12 -11.62394 133.88389 39281 ft 462 kts 322°
2026-05-06 00:13 -11.57168 133.84573 39289 ft 462 kts 322°
2026-05-06 00:13 -11.51980 133.80785 39325 ft 461 kts 322°
2026-05-06 00:14 -11.46759 133.76975 39345 ft 461 kts 322°
2026-05-06 00:14 -11.41538 133.73167 39324 ft 462 kts 322°
2026-05-06 00:15 -11.36297 133.69345 39283 ft 463 kts 322°
2026-05-06 00:15 -11.31059 133.65529 39323 ft 463 kts 322°
2026-05-06 00:16 -11.25814 133.61709 39330 ft 463 kts 322°
2026-05-06 00:16 -11.20605 133.57916 39329 ft 463 kts 322°
2026-05-06 00:17 -11.15353 133.54094 39323 ft 464 kts 322°
2026-05-06 00:17 -11.10094 133.50269 39326 ft 464 kts 322°
2026-05-06 00:18 -11.04842 133.46450 39364 ft 464 kts 322°
2026-05-06 00:18 -10.99623 133.42657 39371 ft 464 kts 322°
2026-05-06 00:19 -10.94372 133.38843 39369 ft 464 kts 322°
2026-05-06 00:19 -10.89112 133.35024 39371 ft 464 kts 322°
2026-05-06 00:20 -10.83855 133.31209 39392 ft 464 kts 322°
2026-05-06 00:20 -10.78598 133.27395 39410 ft 464 kts 322°
2026-05-06 00:21 -10.73338 133.23580 39405 ft 464 kts 322°
2026-05-06 00:21 -10.68082 133.19770 39443 ft 464 kts 322°
2026-05-06 00:22 -10.62814 133.15954 39416 ft 464 kts 323°
2026-05-06 00:22 -10.57581 133.12164 39455 ft 464 kts 322°
2026-05-06 00:23 -10.52317 133.08354 39441 ft 464 kts 323°
2026-05-06 00:23 -10.47058 133.04549 39470 ft 464 kts 322°
2026-05-06 00:24 -10.41789 133.00737 39413 ft 465 kts 322°
2026-05-06 00:24 -10.36515 132.96925 39467 ft 464 kts 323°
2026-05-06 00:25 -10.31243 132.93115 39469 ft 465 kts 322°
2026-05-06 00:25 -10.25976 132.89310 39480 ft 465 kts 323°
2026-05-06 00:26 -10.20734 132.85525 39483 ft 465 kts 322°
2026-05-06 00:26 -10.15455 132.81715 39454 ft 466 kts 322°
2026-05-06 00:27 -10.10173 132.77904 39503 ft 465 kts 322°
2026-05-06 00:27 -10.04885 132.74091 39478 ft 466 kts 322°
2026-05-06 00:28 -9.99614 132.70291 39518 ft 465 kts 322°
2026-05-06 00:28 -9.94361 132.66506 39431 ft 467 kts 322°
2026-05-06 00:29 -9.89064 132.62691 39486 ft 466 kts 322°